This demonstration page uses our WeatherBlox Daily Observations layout. Learn more.

Left ArrowRight Arrow

44.8408, -93.29828

Hourly Observations for July 19, 2017

Temp ( °F °C ) Dew Point ( °F °C ) Humidity (%) Winds ( mph kmh ) Pressure ( in mb ) Visibility ( mi km ) Precip ( " mm )
12:53 am 00:53 Clear 67 19.4 63 17.2 87 87 Calm 30.09 1019 10 16 0.00 0.00
1:53 am 01:53 Clear 67 19.4 63 17.2 87 87 Calm 30.10 1019 10 16 0.00 0.00
2:53 am 02:53 Clear 65 18.3 61 16.1 87 87 Calm 30.10 1019 10 16 0.00 0.00
3:53 am 03:53 Clear 64 17.8 61 16.1 90 90 Calm 30.10 1019 10 16 0.00 0.00
4:53 am 04:53 Clear 62 16.7 59 15 90 90 Calm 30.09 1019 10 16 0.00 0.00
5:53 am 05:53 Hazy 65 18.3 60 15.6 84 84 Calm 30.11 1020 6 10 0.00 0.00
6:53 am 06:53 Hazy 66 18.9 61 16.1 84 84 ENE 3 6 30.11 1020 5 8 0.00 0.00
7:53 am 07:53 Mostly Sunny 69 20.6 63 17.2 81 81 E 6 9 30.09 1019 10 16 0.00 0.00
8:53 am 08:53 Mostly Sunny 74 23.3 61 16.1 64 64 ESE 7 11 30.09 1019 10 16 0.00 0.00
9:53 am 09:53 Mostly Sunny 76 24.4 57 13.9 52 52 SE 13 20 30.08 1019 10 16 0.00 0.00
10:53 am 10:53 Partly Cloudy 79 26.1 58 14.4 49 49 SSE 10 17 30.09 1019 10 16 0.00 0.00
11:53 am 11:53 Mostly Cloudy 81 27.2 56 13.3 42 42 ESE 15 24 30.07 1018 10 16 0.00 0.00
12:53 pm 12:53 Cloudy 82 27.8 54 12.2 38 38 ESE 16 26 30.05 1018 10 16 0.00 0.00
1:53 pm 13:53 Cloudy 82 27.8 55 12.8 40 40 SE 12 19 30.03 1017 10 16 0.00 0.00
2:53 pm 14:53 Cloudy 80 26.7 55 12.8 42 42 E 12 19 30.02 1017 10 16 0.00 0.00
3:11 pm 15:11 Cloudy with Nearby Thunderstorms 80 26.7 54 12.2 41 41 ENE 7 11 30.00 1016 10 16 0.00 0.00
3:25 pm 15:25 Cloudy with Thunderstorms 79 26.1 54 12.2 42 42 N 3 6 30.00 1016 10 16 0.00 0.00
3:33 pm 15:33 Cloudy with Strong Thunderstorms 77 25 59 15 54 54 S 15 24 30.03 1017 2 2 0.03 0.76
3:35 pm 15:35 Cloudy with Strong Thunderstorms 74 23.3 60 15.6 62 62 SSE 8 13 30.09 1019 1 1 0.07 1.78
3:37 pm 15:37 Cloudy with Strong Thunderstorms 72 22.2 61 16.1 68 68 SSE 8 13 30.06 1018 2 2 0.10 2.54
3:53 pm 15:53 Cloudy with Thunderstorms 69 20.6 62 16.7 78 78 SE 14 22 30.08 1019 3 4 0.30 7.62
4:00 pm 16:00 Cloudy with Nearby Thunderstorms 67 19.4 63 17.2 87 87 SE 22 35 29.97 1015 4 6 0.10 2.54
4:13 pm 16:13 Cloudy with Nearby Thunderstorms 67 19.4 64 17.8 91 91 N 5 7 29.97 1015 7 11 0.12 3.05
4:21 pm 16:21 Cloudy with Thunderstorms 67 19.4 63 17.2 87 87 ESE 12 19 29.94 1014 8 13 0.13 3.30
4:35 pm 16:35 Cloudy 68 20 64 17.8 87 87 ESE 14 22 29.91 1013 9 14 0.13 3.30
4:53 pm 16:53 Cloudy 68 20 64 17.8 87 87 ESE 13 20 29.89 1012 10 16 0.13 3.30
5:53 pm 17:53 Cloudy 68 20 64 17.8 87 87 ESE 6 9 29.88 1012 10 16 0.00 0.00
6:53 pm 18:53 Mostly Cloudy 71 21.7 65 18.3 81 81 S 12 19 29.92 1013 10 16 0.00 0.00
7:53 pm 19:53 Mostly Cloudy 72 22.2 66 18.9 82 82 SSW 3 6 29.90 1013 10 16 0.00 0.00
8:38 pm 20:38 Mostly Cloudy with Nearby Thunderstorms 72 22.2 65 18.3 79 79 N 6 9 29.88 1012 10 16 0.00 0.00
8:50 pm 20:50 Mostly Cloudy with Thunderstorms 72 22 66 19 83 83 N 5 7 29.91 1013 10 16 0.00 0.00
8:53 pm 20:53 Mostly Cloudy with Thunderstorms 72 22.2 66 18.9 82 82 Calm 29.90 1013 10 16 0.00 0.00
9:02 pm 21:02 Mostly Cloudy with Nearby Thunderstorms 72 22.2 66 18.9 82 82 ENE 3 6 29.88 1012 10 16 0.00 0.00
9:31 pm 21:31 Cloudy with Thunderstorms 72 22.2 66 18.9 82 82 ENE 5 7 29.88 1012 10 16 0.00 0.00
9:53 pm 21:53 Cloudy with Thunderstorms 72 22.2 66 18.9 82 82 E 7 11 29.91 1013 7 11 0.00 0.00
10:16 pm 22:16 Cloudy with Nearby Thunderstorms 71 21.7 67 19.4 87 87 ENE 12 19 29.91 1013 6 10 0.02 0.51
10:25 pm 22:25 Cloudy with Strong Thunderstorms 70 21.1 67 19.4 90 90 NNW 5 7 29.94 1014 4 6 0.14 3.56
10:53 pm 22:53 Cloudy with Thunderstorms 69 20.6 67 19.4 93 93 ESE 7 11 29.91 1013 5 8 0.72 18.29
11:09 pm 23:09 Cloudy with Nearby Thunderstorms 69 20.6 67 19.4 93 93 E 3 6 29.94 1014 10 16 0.01 0.25
11:53 pm 23:53 Cloudy with Nearby Thunderstorms 70 21.1 67 19.4 90 90 NNW 6 9 29.94 1014 7 11 0.02 0.51

Powered by AerisWeather